Location: Kershaw
(34.5481°N, 80.5823°W)
Time: 11:23:41
(UTC+00:00)

Altair - Pass Details

Date: 09 October 2022
Orbit: 1501 x 1682 km, 47.2° (Epoch: 30 November)

Event Time Altitude Azimuth Distance (km) Brightness Sun altitude
Rises 07:51:25 0° 228° (SW) 4,675 - -43.3°
Reaches altitude 10° 07:54:24 10° 227° (SW) 3,713 - -42.7°
Maximum altitude 08:03:51 82° 141° (SE) 1,601 - -41.0°
Exits shadow 08:05:08 71° 74° (ENE) 1,672 7.6 -40.7°
Drops below altitude 10° 08:13:43 10° 56° (NE) 3,869 10.3 -39.1°
Sets 08:16:53 0° 55° (NE) 4,879 11.0 -38.5°
